period_start,C,m1,H,J0,J1,J2,J3,J4,J5,JA,JB,JC,JD,JJ,JK,JN,#
2017-04-28 00:02:38,0.08,2.59,0.00,24.60,27.85,30.65,14.29,48.87,1009.45,2026.11,2556.04,2437.14,2773.34,599.97,588.63,28.18,0000 0000 0000 0000 000000
2017-04-28 00:07:39,0.11,2.59,0.00,24.60,27.82,30.64,14.39,48.83,1009.53,2026.36,2554.95,2436.52,2772.43,600.15,588.85,28.23,0000 0000 0000 0000 000000
2017-04-28 00:12:39,0.08,2.60,0.00,24.60,27.81,30.62,14.30,48.88,1009.68,2026.71,2553.92,2435.90,2771.59,599.79,588.61,28.28,0000 0000 0000 0000 000000
2017-04-28 00:17:41,0.09,2.60,0.00,24.58,27.80,30.61,14.35,48.82,1009.66,2026.89,2552.93,2435.09,2770.65,599.91,588.81,28.33,0000 0000 0000 0000 000000
2017-04-28 00:22:42,0.08,2.61,0.00,24.57,27.78,30.58,14.29,48.78,1009.65,2026.90,2551.84,2434.27,2769.65,599.96,588.80,28.38,0000 0000 0000 0000 000000
2017-04-28 00:27:43,0.09,2.61,0.00,24.57,27.77,30.56,14.38,48.88,1009.65,2026.96,2550.68,2433.58,2768.63,600.26,589.07,28.43,0000 0000 0000 0000 000000
2017-04-28 00:32:45,0.06,2.61,0.00,24.56,27.75,30.56,14.31,48.81,1009.57,2026.99,2549.56,2432.80,2767.68,600.03,588.85,28.48,0000 0000 0000 0000 000000
2017-04-28 00:37:46,0.07,2.62,0.00,24.56,27.75,30.55,14.30,48.85,1009.60,2026.98,2548.47,2432.04,2766.64,600.19,588.88,28.53,0000 0000 0000 0000 000000
2017-04-28 00:42:47,0.07,2.62,0.00,24.55,27.73,30.54,14.33,48.82,1009.64,2026.99,2547.51,2431.27,2765.73,599.69,588.56,28.58,0000 0000 0000 0000 000000
2017-04-28 00:47:49,0.07,2.63,0.00,24.57,27.72,30.55,14.30,48.73,1009.65,2026.99,2546.41,2430.66,2764.75,600.15,588.93,28.63,0000 0000 0000 0000 000000
2017-04-28 00:52:50,0.07,2.63,0.00,24.56,27.72,30.53,14.34,48.84,1009.64,2026.99,2545.13,2429.86,2763.70,600.16,589.02,28.68,0000 0000 0000 0000 000000
2017-04-28 00:57:51,0.11,2.63,0.00,24.52,27.71,30.53,14.38,48.77,1009.68,2026.99,2543.65,2428.74,2762.44,600.08,589.01,28.73,0000 0000 0000 0000 000000
2017-04-28 01:02:53,0.11,2.64,0.00,24.53,27.70,30.55,14.37,48.91,1009.74,2026.99,2541.85,2427.55,2760.99,600.07,588.94,28.78,0000 0000 0000 0000 000000
2017-04-28 01:07:54,0.11,2.65,0.00,24.51,27.70,30.53,14.45,48.89,1009.71,2026.99,2540.21,2426.37,2759.58,600.12,589.22,28.83,0000 0000 0000 0000 000000
2017-04-28 01:12:56,0.08,2.65,0.00,24.52,27.69,30.54,14.34,48.81,1009.68,2026.99,2539.01,2425.54,2758.50,599.92,588.82,28.88,0000 0000 0000 0000 000000
2017-04-28 01:17:57,0.10,2.65,0.00,24.53,27.67,30.52,14.37,48.93,1009.59,2026.99,2537.57,2424.60,2757.37,600.25,589.11,28.93,0000 0000 0000 0000 000000
2017-04-28 01:22:58,0.13,2.66,0.00,24.53,27.67,30.51,14.19,48.78,1009.69,2026.99,2535.55,2423.15,2755.55,599.75,588.66,28.98,0000 0000 0000 0000 000000
2017-04-28 01:27:59,0.08,2.67,0.00,24.52,27.67,30.50,14.32,48.98,1009.74,2026.99,2534.43,2422.22,2754.65,600.40,589.27,29.03,0000 0000 0000 0000 000000
2017-04-28 01:33:01,0.09,2.67,0.00,24.53,27.66,30.51,14.33,49.01,1009.72,2026.99,2533.04,2421.41,2753.55,599.69,588.80,29.08,0000 0000 0000 0000 000000
2017-04-28 01:38:02,0.13,2.68,0.00,24.52,27.65,30.53,14.28,48.97,1009.69,2026.99,2530.75,2420.04,2751.83,599.88,588.91,29.13,0000 0000 0000 0000 000000
2017-04-28 01:43:03,0.08,2.68,0.00,24.51,27.65,30.52,14.26,49.02,1009.67,2026.99,2529.45,2419.07,2750.82,599.70,588.58,29.18,0000 0000 0000 0000 000000
2017-04-28 01:48:04,0.07,2.69,0.00,24.49,27.65,30.49,14.35,49.09,1009.66,2026.99,2528.31,2418.30,2749.93,600.09,589.10,29.23,0000 0000 0000 0000 000000
2017-04-28 01:53:06,0.07,2.69,0.00,24.48,27.64,30.50,14.31,49.02,1009.74,2027.01,2527.36,2417.71,2749.04,599.82,588.86,29.28,0000 0000 0000 0000 000000
2017-04-28 01:58:07,0.06,2.69,0.00,24.49,27.63,30.50,14.38,49.02,1009.78,2027.01,2526.20,2416.96,2748.13,600.18,589.23,29.33,0000 0000 0000 0000 000000
2017-04-28 02:03:08,0.10,2.70,0.00,24.49,27.62,30.49,14.39,48.98,1009.78,2027.03,2524.81,2416.11,2747.08,600.17,589.24,29.38,0000 0000 0000 0000 000000
2017-04-28 02:08:10,0.07,2.70,0.00,24.49,27.62,30.47,14.39,49.01,1009.78,2027.01,2523.73,2415.31,2746.06,600.02,589.11,29.43,0000 0000 0000 0000 000000
2017-04-28 02:13:11,0.05,2.71,0.00,24.48,27.62,30.50,14.34,49.05,1009.78,2027.02,2522.84,2414.79,2745.28,600.37,589.47,29.48,0000 0000 0000 0000 000000
2017-04-28 02:18:12,0.08,2.71,0.00,24.48,27.62,30.49,14.25,49.00,1009.78,2027.04,2521.64,2413.88,2744.44,599.48,588.51,29.53,0000 0000 0000 0000 000000
2017-04-28 02:23:13,0.10,2.72,0.00,24.47,27.61,30.49,14.33,49.02,1009.79,2027.08,2520.00,2412.90,2743.09,599.95,588.93,29.58,0000 0000 0000 0000 000000
2017-04-28 02:28:15,0.07,2.72,0.00,24.47,27.60,30.47,14.40,49.12,1009.78,2027.11,2518.99,2412.07,2742.14,600.26,589.32,29.63,0000 0000 0000 0000 000000
2017-04-28 02:33:16,0.09,2.72,0.00,24.49,27.60,30.49,14.28,49.00,1009.79,2027.07,2517.58,2411.26,2741.13,599.90,589.00,29.68,0000 0000 0000 0000 000000
2017-04-28 02:38:18,0.10,2.73,0.00,24.48,27.60,30.48,14.36,49.01,1009.79,2027.06,2515.93,2410.19,2739.80,600.19,589.28,29.73,0000 0000 0000 0000 000000
2017-04-28 02:43:19,0.08,2.73,0.00,24.47,27.60,30.46,14.41,49.07,1009.80,2027.06,2514.72,2409.30,2738.78,600.14,589.31,29.78,0000 0000 0000 0000 000000
2017-04-28 02:48:20,0.10,2.74,0.00,24.47,27.60,30.48,14.29,48.97,1009.80,2027.05,2513.17,2408.37,2737.53,599.95,589.07,29.83,0000 0000 0000 0000 000000
2017-04-28 02:53:21,0.09,2.74,0.00,24.49,27.59,30.47,14.36,49.02,1009.82,2027.06,2511.50,2407.23,2736.28,600.09,589.13,29.88,0000 0000 0000 0000 000000
2017-04-28 02:58:23,0.13,2.75,0.00,24.47,27.58,30.47,14.40,48.93,1009.82,2027.08,2509.69,2406.06,2734.77,600.15,589.26,29.93,0000 0000 0000 0000 000000
2017-04-28 03:03:24,0.10,2.76,0.00,24.48,27.57,30.47,14.36,49.17,1009.84,2027.24,2508.24,2405.02,2733.67,600.25,589.50,29.98,0000 0000 0000 0000 000000
2017-04-28 03:08:25,0.13,2.76,0.00,24.47,27.57,30.46,14.31,49.09,1010.01,2027.36,2506.50,2403.93,2732.32,600.14,589.36,30.03,0000 0000 0000 0000 000000
2017-04-28 03:13:27,0.09,2.77,0.00,24.48,27.57,30.45,14.29,48.93,1010.06,2027.26,2504.88,2402.85,2730.94,599.86,589.11,30.08,0000 0000 0000 0000 000000
2017-04-28 03:18:28,0.12,2.77,0.00,24.46,27.57,30.46,14.32,49.02,1010.04,2027.31,2503.12,2401.59,2729.56,600.03,589.29,30.13,0000 0000 0000 0000 000000
2017-04-28 03:23:29,0.07,2.78,0.00,24.49,27.57,30.48,14.29,49.02,1010.05,2027.16,2501.71,2400.68,2728.50,600.13,589.21,30.18,0000 0000 0000 0000 000000
2017-04-28 03:28:30,0.09,2.78,0.00,24.47,27.57,30.47,14.37,49.14,1010.17,2027.14,2500.46,2399.74,2727.33,599.98,589.21,30.24,0000 0000 0000 0000 000000
2017-04-28 03:33:31,0.11,2.79,0.00,24.46,27.55,30.47,14.31,49.00,1010.18,2027.24,2498.84,2398.68,2726.04,600.07,589.45,30.29,0000 0000 0000 0000 000000
2017-04-28 03:38:33,0.13,2.79,0.00,24.43,27.55,30.46,14.23,49.06,1010.17,2027.28,2497.00,2397.52,2724.68,599.84,589.27,30.34,0000 0000 0000 0000 000000
2017-04-28 03:43:34,0.11,2.80,0.00,24.46,27.55,30.47,14.31,49.08,1010.09,2027.34,2495.29,2396.19,2723.12,599.78,589.05,30.39,0000 0000 0000 0000 000000
2017-04-28 03:48:35,0.09,2.81,0.00,24.46,27.55,30.45,14.35,49.08,1010.04,2027.47,2493.90,2395.17,2721.97,600.03,589.43,30.44,0000 0000 0000 0000 000000
2017-04-28 03:53:36,0.10,2.81,0.00,24.49,27.55,30.46,14.34,49.13,1010.08,2027.39,2492.48,2394.24,2720.71,600.07,589.31,30.49,0000 0000 0000 0000 000000
2017-04-28 03:58:38,0.12,2.82,0.00,24.46,27.55,30.44,14.28,49.03,1010.10,2027.51,2490.93,2393.13,2719.52,599.81,589.21,30.54,0000 0000 0000 0000 000000
2017-04-28 04:03:39,0.09,2.82,0.00,24.47,27.55,30.46,14.19,49.02,1010.23,2027.56,2489.66,2392.26,2718.40,599.89,589.28,30.59,0000 0000 0000 0000 000000
2017-04-28 04:08:40,0.10,2.83,0.00,24.48,27.54,30.45,14.26,49.13,1010.26,2027.59,2488.14,2391.33,2717.15,599.90,589.32,30.64,0000 0000 0000 0000 000000
2017-04-28 04:13:42,0.09,2.83,0.00,24.45,27.53,30.44,14.37,49.11,1010.25,2027.53,2486.68,2390.24,2715.93,599.98,589.42,30.69,0000 0000 0000 0000 000000
2017-04-28 04:18:43,0.09,2.84,0.00,24.44,27.52,30.44,14.44,49.27,1010.25,2027.45,2485.28,2389.24,2714.74,600.17,589.62,30.74,0000 0000 0000 0000 000000
2017-04-28 04:23:44,0.08,2.84,0.00,24.44,27.52,30.45,14.30,49.19,1010.24,2027.26,2483.61,2388.13,2713.43,599.67,589.10,30.79,0000 0000 0000 0000 000000
2017-04-28 04:28:45,0.12,2.85,0.00,24.49,27.52,30.45,14.35,49.18,1010.21,2027.50,2482.25,2387.16,2712.29,600.41,589.70,30.84,0000 0000 0000 0000 000000
2017-04-28 04:33:47,0.07,2.85,0.00,24.48,27.52,30.45,14.26,49.12,1010.24,2027.39,2480.91,2386.18,2711.12,599.76,589.12,30.89,0000 0000 0000 0000 000000
2017-04-28 04:38:49,0.11,2.86,0.00,24.47,27.52,30.44,14.28,49.12,1010.25,2027.29,2479.41,2385.17,2709.74,599.85,589.29,30.94,0000 0000 0000 0000 000000
2017-04-28 04:43:50,0.10,2.86,0.00,24.44,27.52,30.42,14.31,49.24,1010.27,2027.32,2477.76,2384.11,2708.59,599.82,589.30,30.99,0000 0000 0000 0000 000000
2017-04-28 04:48:51,0.12,2.87,0.00,24.46,27.51,30.43,14.31,49.17,1010.27,2027.46,2476.38,2383.12,2707.44,599.98,589.44,31.04,0000 0000 0000 0000 000000
2017-04-28 04:53:53,0.11,2.87,0.00,24.48,27.50,30.44,14.35,49.18,1010.27,2027.52,2474.63,2382.09,2706.16,599.96,589.33,31.09,0000 0000 0000 0000 000000
2017-04-28 04:58:54,0.13,2.88,0.00,24.48,27.50,30.44,14.30,49.20,1010.27,2027.62,2473.09,2381.03,2704.81,599.96,589.34,31.14,0000 0000 0000 0000 000000
2017-04-28 05:03:56,0.07,2.89,0.00,24.46,27.50,30.44,14.36,49.15,1010.27,2027.65,2471.74,2380.07,2703.76,600.09,589.42,31.19,0000 0000 0000 0000 000000
2017-04-28 05:08:57,0.09,2.89,0.00,24.44,27.50,30.44,14.39,49.31,1010.27,2027.68,2470.60,2379.28,2702.79,600.30,589.75,31.24,0000 0000 0000 0000 000000
2017-04-28 05:13:58,0.06,2.89,0.00,24.49,27.50,30.43,14.35,49.19,1010.27,2027.48,2469.32,2378.40,2701.81,600.15,589.56,31.29,0000 0000 0000 0000 000000
2017-04-28 05:18:59,0.10,2.90,0.00,24.48,27.48,30.43,14.28,49.10,1010.27,2027.63,2468.21,2377.63,2700.74,599.99,589.37,31.34,0000 0000 0000 0000 000000
2017-04-28 05:24:01,0.09,2.90,0.00,24.48,27.47,30.44,14.33,49.18,1010.27,2027.64,2466.78,2376.74,2699.66,600.29,589.60,31.39,0000 0000 0000 0000 000000
2017-04-28 05:29:02,0.11,2.91,0.00,24.44,27.47,30.42,14.36,49.10,1010.28,2027.70,2465.30,2375.71,2698.45,600.19,589.63,31.44,0000 0000 0000 0000 000000
2017-04-28 05:34:03,0.13,2.91,0.00,24.47,27.47,30.40,14.29,49.17,1010.29,2027.77,2463.57,2374.48,2696.95,599.96,589.35,31.49,0000 0000 0000 0000 000000
2017-04-28 05:39:04,0.11,2.92,0.00,24.46,27.47,30.42,14.34,49.09,1010.30,2027.79,2461.98,2373.45,2695.70,599.98,589.42,31.54,0000 0000 0000 0000 000000
2017-04-28 05:44:06,0.06,2.92,0.00,24.47,27.46,30.41,14.32,49.08,1010.39,2027.94,2460.91,2372.78,2694.87,600.02,589.57,31.59,0000 0000 0000 0000 000000
2017-04-28 05:49:07,0.08,2.93,0.00,24.49,27.45,30.41,14.28,49.02,1010.47,2027.94,2459.81,2371.91,2693.87,599.78,589.13,31.64,0000 0000 0000 0000 000000
2017-04-28 05:54:08,0.13,2.93,0.00,24.47,27.45,30.41,14.28,49.00,1010.63,2027.94,2458.18,2370.78,2692.55,599.75,589.36,31.69,0000 0000 0000 0000 000000
2017-04-28 05:59:09,0.10,2.94,0.00,24.47,27.45,30.40,14.22,49.01,1010.66,2027.96,2456.59,2369.73,2691.29,599.87,589.47,31.74,0000 0000 0000 0000 000000
2017-04-28 06:04:11,0.08,2.94,0.00,24.49,27.45,30.42,14.30,49.01,1010.67,2027.97,2455.34,2368.81,2690.12,599.92,589.56,31.79,0000 0000 0000 0000 000000
2017-04-28 06:09:12,0.11,2.95,0.00,24.48,27.43,30.42,14.24,48.93,1010.75,2027.98,2453.79,2367.82,2688.92,600.06,589.66,31.84,0000 0000 0000 0000 000000
2017-04-28 06:14:13,0.08,2.95,0.00,24.51,27.42,30.41,14.34,49.07,1010.75,2027.98,2452.58,2367.03,2687.89,600.04,589.69,31.89,0000 0000 0000 0000 000000
2017-04-28 06:19:15,0.08,2.96,0.00,24.53,27.42,30.40,14.28,49.02,1010.76,2027.98,2451.42,2366.30,2686.96,599.92,589.59,31.94,0000 0000 0000 0000 000000
2017-04-28 06:24:16,0.09,2.96,0.00,24.54,27.42,30.41,14.31,49.04,1010.76,2027.99,2450.15,2365.47,2685.87,600.14,589.73,31.99,0000 0000 0000 0000 000000
2017-04-28 06:29:17,0.09,2.97,0.00,24.52,27.42,30.40,14.36,49.11,1010.76,2027.99,2448.84,2364.47,2684.82,600.11,589.71,32.04,0000 0000 0000 0000 000000
2017-04-28 06:34:19,0.09,2.97,0.00,24.50,27.41,30.39,14.39,49.13,1010.76,2027.98,2447.62,2363.64,2683.74,600.09,589.68,32.09,0000 0000 0000 0000 000000
2017-04-28 06:39:20,0.07,2.98,0.00,24.51,27.40,30.41,14.36,48.99,1010.77,2027.99,2446.42,2362.82,2682.71,600.18,589.84,32.14,0000 0000 0000 0000 000000
2017-04-28 06:44:21,0.07,2.98,0.00,24.53,27.40,30.39,14.33,49.17,1010.77,2027.99,2445.23,2361.99,2681.75,599.72,589.20,32.19,0000 0000 0000 0000 000000
2017-04-28 06:49:22,0.09,2.99,0.00,24.50,27.40,30.39,14.30,49.13,1010.76,2027.99,2443.95,2361.09,2680.72,599.68,589.55,32.24,0000 0000 0000 0000 000000
2017-04-28 06:54:24,0.10,2.99,0.00,24.54,27.39,30.39,14.35,49.20,1010.78,2027.99,2442.69,2360.20,2679.65,600.19,589.71,32.29,0000 0000 0000 0000 000000
2017-04-28 06:59:25,0.15,3.00,0.00,24.52,27.37,30.38,14.32,49.01,1010.79,2027.99,2440.82,2358.93,2678.04,600.03,589.50,32.34,0000 0000 0000 0000 000000
2017-04-28 07:04:26,0.12,3.00,0.00,24.52,27.37,30.37,14.30,49.02,1010.81,2027.99,2438.90,2357.60,2676.54,600.21,589.82,32.39,0000 0000 0000 0000 000000
2017-04-28 07:09:27,0.09,3.01,0.00,24.53,27.37,30.37,14.30,48.98,1010.97,2027.99,2437.59,2356.69,2675.48,600.00,589.68,32.44,0000 0000 0000 0000 000000
2017-04-28 07:14:29,0.09,3.01,0.00,24.52,27.37,30.37,14.37,49.08,1011.02,2027.99,2436.15,2355.70,2674.27,600.11,589.90,32.50,0000 0000 0000 0000 000000
2017-04-28 07:19:30,0.09,3.02,0.00,24.53,27.35,30.37,14.36,49.06,1011.19,2027.99,2434.77,2354.75,2673.08,600.30,590.07,32.55,0000 0000 0000 0000 000000
2017-04-28 07:24:31,0.07,3.02,0.00,24.53,27.35,30.36,14.31,48.97,1011.23,2027.99,2433.65,2353.93,2672.07,600.03,589.95,32.60,0000 0000 0000 0000 000000
2017-04-28 07:29:33,0.08,3.03,0.00,24.52,27.35,30.36,14.40,49.04,1011.23,2027.99,2432.43,2353.02,2671.11,600.31,590.11,32.65,0000 0000 0000 0000 000000
2017-04-28 07:34:34,0.09,3.03,0.00,24.51,27.34,30.37,14.31,49.10,1011.22,2027.99,2431.20,2352.11,2670.05,600.08,589.88,32.70,0000 0000 0000 0000 000000
2017-04-28 07:39:35,0.08,3.04,0.00,24.49,27.32,30.36,14.27,49.08,1011.24,2027.99,2430.12,2351.39,2669.09,600.13,590.11,32.75,0000 0000 0000 0000 000000
2017-04-28 07:44:37,0.06,3.04,0.00,24.51,27.32,30.37,14.43,49.08,1011.24,2027.99,2429.13,2350.83,2668.22,600.29,590.08,32.80,0000 0000 0000 0000 000000
2017-04-28 07:49:38,0.07,3.04,0.00,24.52,27.32,30.36,14.44,49.07,1011.24,2028.00,2428.21,2350.05,2667.42,600.39,590.17,32.85,0000 0000 0000 0000 000000
2017-04-28 07:54:39,0.07,3.05,0.00,24.50,27.31,30.36,14.33,49.10,1011.25,2028.00,2427.34,2349.37,2666.69,599.79,589.55,32.90,0000 0000 0000 0000 000000
2017-04-28 07:59:41,0.04,3.05,0.00,24.44,27.30,30.35,14.32,49.06,1011.25,2028.00,2426.43,2348.89,2665.94,599.82,589.88,32.95,0000 0000 0000 0000 000000
2017-04-28 08:04:42,0.08,3.05,0.00,24.43,27.30,30.36,14.37,49.06,1011.25,2028.01,2425.52,2348.07,2665.09,599.94,589.97,33.00,0000 0000 0000 0000 000000
2017-04-28 08:09:44,0.08,3.06,0.00,24.42,27.30,30.35,14.36,49.08,1011.25,2028.03,2424.47,2347.43,2664.24,600.10,590.13,33.05,0000 0000 0000 0000 000000
2017-04-28 08:14:45,0.04,3.06,0.00,24.42,27.28,30.36,14.39,49.18,1011.25,2028.02,2423.70,2346.89,2663.48,599.90,589.99,33.10,0000 0000 0000 0000 000000
2017-04-28 08:19:47,0.07,3.06,0.00,24.42,27.27,30.35,14.39,49.09,1011.25,2028.03,2422.71,2346.10,2662.73,600.15,590.21,33.15,0000 0000 0000 0000 000000
2017-04-28 08:24:48,0.07,3.07,0.00,24.40,27.27,30.33,14.37,49.15,1011.25,2028.04,2421.70,2345.48,2661.87,600.03,590.12,33.20,0000 0000 0000 0000 000000
2017-04-28 08:29:49,0.04,3.07,0.00,24.38,27.26,30.35,14.37,49.11,1011.26,2028.05,2420.86,2344.94,2661.04,599.81,590.11,33.25,0000 0000 0000 0000 000000
2017-04-28 08:34:51,0.08,3.07,0.00,24.37,27.25,30.35,14.32,49.03,1011.30,2028.04,2419.93,2344.10,2660.21,599.85,590.03,33.30,0000 0000 0000 0000 000000
2017-04-28 08:39:52,0.06,3.08,0.00,24.38,27.25,30.35,14.31,49.00,1011.44,2028.04,2419.04,2343.62,2659.63,600.01,590.26,33.35,0000 0000 0000 0000 000000
2017-04-28 08:44:53,0.06,3.08,0.00,24.37,27.24,30.33,14.40,49.15,1011.60,2028.12,2418.09,2342.99,2658.90,600.31,590.65,33.41,0000 0000 0000 0000 000000
2017-04-28 08:49:54,0.08,3.08,0.00,24.34,27.22,30.33,14.34,49.12,1011.66,2028.10,2417.20,2342.20,2658.06,600.04,590.43,33.46,0000 0000 0000 0000 000000
2017-04-28 08:54:55,0.08,3.09,0.00,24.28,27.22,30.34,14.33,49.02,1011.70,2028.32,2416.24,2341.79,2657.20,600.26,590.84,33.51,0000 0000 0000 0000 000000
2017-04-28 08:59:57,0.06,3.09,0.00,24.30,27.22,30.35,14.32,49.05,1011.70,2028.37,2415.53,2341.04,2656.55,600.02,590.59,33.56,0000 0000 0000 0000 000000
2017-04-28 09:04:58,0.08,3.10,0.00,24.29,27.20,30.34,14.36,49.17,1011.72,2028.37,2414.57,2340.31,2655.88,600.15,590.78,33.61,0000 0000 0000 0000 000000
2017-04-28 09:09:59,0.04,3.10,0.00,24.28,27.20,30.34,14.32,49.02,1011.73,2028.42,2413.69,2339.88,2655.01,599.78,590.48,33.66,0000 0000 0000 0000 000000
2017-04-28 09:15:00,0.08,3.10,0.00,24.30,27.20,30.35,14.40,49.21,1011.73,2028.44,2412.89,2339.07,2654.10,599.88,590.63,33.71,0000 0000 0000 0000 000000
2017-04-28 09:20:01,0.08,3.11,0.00,24.26,27.17,30.32,14.37,48.98,1011.73,2028.63,2412.02,2338.64,2653.53,600.03,590.63,33.76,0000 0000 0000 0000 000000
2017-04-28 09:25:03,0.07,3.11,0.00,24.19,27.17,30.33,14.35,49.14,1011.74,2028.86,2411.10,2338.00,2652.80,599.88,590.79,33.81,0000 0000 0000 0000 000000
2017-04-28 09:30:04,0.08,3.12,0.00,24.20,27.17,30.32,14.33,49.13,1011.76,2028.89,2410.32,2337.28,2652.03,599.87,590.65,33.86,0000 0000 0000 0000 000000
2017-04-28 09:35:05,0.05,3.12,0.00,24.19,27.15,30.31,14.38,49.14,1011.78,2028.96,2409.54,2336.91,2651.32,600.14,591.06,33.91,0000 0000 0000 0000 000000
2017-04-28 09:40:06,0.07,3.12,0.00,24.12,27.15,30.30,14.33,48.97,1011.84,2028.94,2408.71,2336.08,2650.63,600.02,591.01,33.96,0000 0000 0000 0000 000000
2017-04-28 09:45:08,0.05,3.12,0.00,24.12,27.13,30.29,14.43,49.10,1011.92,2028.97,2407.83,2335.55,2649.94,600.14,591.11,34.01,0000 0000 0000 0000 000000
2017-04-28 09:50:09,0.04,3.13,0.00,24.14,27.12,30.28,14.48,49.08,1012.06,2028.99,2407.05,2335.01,2649.12,600.29,591.46,34.06,0000 0000 0000 0000 000000
2017-04-28 09:55:10,0.08,3.13,0.00,24.12,27.12,30.27,14.35,49.06,1012.15,2028.98,2406.18,2334.34,2648.48,600.07,591.22,34.11,0000 0000 0000 0000 000000
2017-04-28 10:00:12,0.08,3.13,0.00,24.11,27.10,30.27,14.36,49.13,1012.17,2028.98,2404.96,2333.56,2647.60,600.05,591.18,34.16,0000 0000 0000 0000 000000
2017-04-28 10:05:13,0.09,3.14,0.00,24.06,27.10,30.27,14.36,49.14,1012.19,2028.98,2403.81,2332.70,2646.57,599.74,591.04,34.21,0000 0000 0000 0000 000000
2017-04-28 10:10:15,0.05,3.14,0.00,24.04,27.08,30.26,14.39,49.13,1012.21,2028.99,2402.84,2332.01,2645.79,600.00,591.35,34.27,0000 0000 0000 0000 000000
2017-04-28 10:15:16,0.06,3.15,0.00,24.06,27.07,30.24,14.36,49.10,1012.22,2028.99,2402.00,2331.44,2645.04,599.96,591.35,34.32,0000 0000 0000 0000 000000
2017-04-28 10:20:17,0.05,3.15,0.00,24.03,27.06,30.23,14.40,49.06,1012.22,2028.99,2401.16,2330.96,2644.32,599.99,591.41,34.37,0000 0000 0000 0000 000000
2017-04-28 10:25:18,0.07,3.15,0.00,24.04,27.05,30.23,14.34,49.03,1012.22,2028.99,2400.41,2330.18,2643.73,599.92,591.33,34.42,0000 0000 0000 0000 000000
2017-04-28 10:30:19,0.08,3.16,0.00,24.04,27.04,30.23,14.44,49.12,1012.22,2028.99,2399.31,2329.54,2642.78,600.04,591.46,34.47,0000 0000 0000 0000 000000
2017-04-28 10:35:20,0.11,3.16,0.00,23.99,27.02,30.21,14.36,49.08,1012.22,2029.00,2397.70,2328.47,2641.60,600.07,591.46,34.52,0000 0000 0000 0000 000000
2017-04-28 10:40:21,0.05,3.16,0.00,24.06,27.02,30.21,14.36,49.13,1012.22,2029.00,2396.72,2327.83,2640.82,600.01,591.35,34.57,0000 0000 0000 0000 000000
2017-04-28 10:45:23,0.08,3.17,0.00,24.00,27.00,30.20,14.37,49.14,1012.24,2029.00,2395.59,2326.99,2639.90,599.86,591.28,34.62,0000 0000 0000 0000 000000
2017-04-28 10:50:24,0.11,3.17,0.00,23.93,27.00,30.19,14.40,49.16,1012.29,2029.01,2394.16,2325.99,2638.75,600.27,591.86,34.67,0000 0000 0000 0000 000000
2017-04-28 10:55:25,0.13,3.18,0.00,23.95,26.97,30.17,14.33,49.08,1012.27,2029.01,2392.51,2324.81,2637.45,599.90,591.49,34.72,0000 0000 0000 0000 000000
2017-04-28 11:00:26,0.12,3.19,0.00,24.01,26.97,30.16,14.29,49.21,1012.25,2029.02,2390.75,2323.64,2636.05,599.56,591.02,34.77,0000 0000 0000 0000 000000
2017-04-28 11:05:28,0.09,3.19,0.00,24.06,26.95,30.16,14.41,49.13,1012.24,2029.03,2389.31,2322.69,2634.90,599.77,591.12,34.82,0000 0000 0000 0000 000000
2017-04-28 11:10:29,0.13,3.20,0.00,23.92,26.95,30.15,14.38,49.20,1012.26,2029.08,2387.73,2321.61,2633.71,599.87,591.45,34.87,0000 0000 0000 0000 000000
2017-04-28 11:15:29,0.11,3.20,0.00,24.02,26.93,30.14,14.34,49.07,1012.48,2029.21,2386.24,2320.55,2632.51,599.62,591.19,34.92,0000 0000 0000 0000 000000
2017-04-28 11:20:31,0.12,3.21,0.00,23.98,26.92,30.14,14.41,49.25,1012.59,2029.24,2384.54,2319.38,2631.26,599.86,591.61,34.97,0000 0000 0000 0000 000000
2017-04-28 11:25:32,0.12,3.22,0.00,24.03,26.91,30.13,14.45,49.15,1012.68,2029.31,2382.95,2318.37,2629.99,600.42,592.17,35.02,0000 0000 0000 0000 000000
2017-04-28 11:30:34,0.12,3.22,0.00,24.10,26.90,30.13,14.32,49.13,1012.71,2029.46,2381.39,2317.32,2628.71,599.69,591.26,35.07,0000 0000 0000 0000 000000
2017-04-28 11:35:35,0.15,3.23,0.00,23.96,26.90,30.11,14.40,49.21,1012.71,2029.74,2379.76,2316.26,2627.52,600.34,592.25,35.12,0000 0000 0000 0000 000000
2017-04-28 11:40:36,0.11,3.24,0.00,23.87,26.87,30.10,14.40,49.19,1012.71,2029.89,2378.22,2315.15,2626.31,599.87,591.89,35.17,0000 0000 0000 0000 000000
2017-04-28 11:45:37,0.12,3.24,0.00,24.07,26.87,30.09,14.42,49.17,1012.71,2029.95,2376.61,2314.09,2625.00,600.17,591.77,35.22,0000 0000 0000 0000 000000
2017-04-28 11:50:39,0.10,3.25,0.00,24.17,26.86,30.09,14.42,49.17,1012.72,2029.95,2374.91,2313.01,2623.72,600.27,591.52,35.28,0000 0000 0000 0000 000000
2017-04-28 11:55:40,0.10,3.25,0.00,23.95,26.85,30.09,14.38,49.12,1012.72,2029.97,2373.54,2312.03,2622.80,600.15,591.87,35.33,0000 0000 0000 0000 000000
2017-04-28 12:00:41,0.12,3.26,0.00,23.91,26.85,30.07,14.44,49.13,1012.73,2029.98,2371.88,2310.97,2621.52,600.31,592.25,35.38,0000 0000 0000 0000 000000
2017-04-28 12:05:42,0.11,3.27,0.00,24.03,26.83,30.08,14.38,49.05,1012.76,2029.97,2370.28,2309.89,2620.36,599.91,591.63,35.43,0000 0000 0000 0000 000000
2017-04-28 12:10:44,0.10,3.27,0.00,24.06,26.82,30.08,14.43,49.13,1012.79,2029.98,2368.76,2308.92,2619.30,600.03,591.69,35.48,0000 0000 0000 0000 000000
2017-04-28 12:15:45,0.09,3.28,0.00,24.07,26.82,30.06,14.37,49.06,1012.82,2029.99,2367.37,2307.99,2618.16,599.97,591.67,35.53,0000 0000 0000 0000 000000
2017-04-28 12:20:46,0.11,3.28,0.00,24.13,26.81,30.07,14.32,49.10,1012.78,2029.98,2365.95,2307.00,2617.01,599.86,591.39,35.58,0000 0000 0000 0000 000000
2017-04-28 12:25:47,0.11,3.29,0.00,24.05,26.80,30.06,14.35,49.11,1012.82,2029.99,2364.38,2305.93,2615.81,599.96,591.71,35.63,0000 0000 0000 0000 000000
2017-04-28 12:30:49,0.13,3.29,0.00,24.03,26.80,30.05,14.36,49.13,1012.79,2029.99,2362.61,2304.81,2614.51,599.89,591.74,35.68,0000 0000 0000 0000 000000
2017-04-28 12:35:50,0.13,3.30,0.00,24.10,26.79,30.05,14.39,49.12,1012.74,2029.99,2360.79,2303.62,2613.06,600.05,591.60,35.73,0000 0000 0000 0000 000000
2017-04-28 12:40:51,0.12,3.31,0.00,24.11,26.77,30.05,14.27,49.08,1012.77,2029.99,2359.09,2302.60,2611.72,599.90,591.45,35.78,0000 0000 0000 0000 000000
2017-04-28 12:45:52,0.11,3.31,0.00,24.15,26.77,30.05,14.40,49.10,1012.77,2029.99,2357.57,2301.61,2610.54,600.23,591.70,35.83,0000 0000 0000 0000 000000
2017-04-28 12:50:54,0.10,3.32,0.00,24.08,26.77,30.05,14.32,49.05,1012.77,2029.99,2356.01,2300.57,2609.46,599.59,591.41,35.88,0000 0000 0000 0000 000000
2017-04-28 12:55:55,0.12,3.32,0.00,24.03,26.77,30.05,14.36,49.05,1012.87,2029.99,2354.32,2299.43,2608.05,599.84,591.62,35.93,0000 0000 0000 0000 000000